TimeCDT,TemperatureF,Dew PointF,Humidity,Sea Level PressureIn,VisibilityMPH,Wind Direction,Wind SpeedMPH,Gust SpeedMPH,PrecipitationIn,Events,Conditions,WindDirDegrees,DateUTC
12:53 AM,55.9,46.9,72,30.01,10.0,South,8.1,-,N/A,,Mostly Cloudy,170,2013-04-06 05:53:00
1:53 AM,57.0,46.9,69,29.98,10.0,SSE,10.4,-,N/A,,Mostly Cloudy,160,2013-04-06 06:53:00
2:53 AM,59.0,46.9,64,29.96,10.0,South,16.1,-,N/A,,Mostly Cloudy,170,2013-04-06 07:53:00
3:53 AM,57.9,46.9,67,29.94,10.0,South,12.7,-,N/A,,Mostly Cloudy,170,2013-04-06 08:53:00
4:53 AM,57.9,48.0,70,29.94,10.0,South,16.1,-,N/A,,Mostly Cloudy,180,2013-04-06 09:53:00
5:53 AM,57.0,48.0,72,29.93,10.0,South,13.8,-,N/A,,Mostly Cloudy,180,2013-04-06 10:53:00
6:53 AM,55.9,46.9,72,29.94,10.0,South,15.0,-,N/A,,Mostly Cloudy,180,2013-04-06 11:53:00
7:53 AM,55.9,45.0,67,29.95,10.0,South,16.1,-,N/A,,Mostly Cloudy,180,2013-04-06 12:53:00
8:53 AM,57.9,44.1,60,29.94,10.0,South,18.4,34.5,N/A,,Partly Cloudy,190,2013-04-06 13:53:00
9:53 AM,62.1,43.0,50,29.94,10.0,South,29.9,38.0,N/A,,Partly Cloudy,190,2013-04-06 14:53:00
10:53 AM,66.0,46.0,48,29.94,10.0,South,28.8,39.1,N/A,,Partly Cloudy,190,2013-04-06 15:53:00
11:53 AM,68.0,50.0,52,29.94,10.0,South,23.0,33.4,N/A,,Partly Cloudy,170,2013-04-06 16:53:00
12:53 PM,68.0,50.0,52,29.91,10.0,South,25.3,34.5,N/A,,Partly Cloudy,180,2013-04-06 17:53:00
1:53 PM,71.1,52.0,51,29.88,10.0,South,24.2,36.8,N/A,,Partly Cloudy,190,2013-04-06 18:53:00
2:53 PM,72.0,54.0,53,29.86,10.0,South,21.9,33.4,N/A,,Scattered Clouds,180,2013-04-06 19:53:00
3:53 PM,73.9,55.0,52,29.84,10.0,South,21.9,29.9,N/A,,Scattered Clouds,180,2013-04-06 20:53:00
4:53 PM,73.9,55.0,52,29.82,10.0,South,23.0,32.2,N/A,,Mostly Cloudy,190,2013-04-06 21:53:00
5:53 PM,73.9,55.0,52,29.82,10.0,South,19.6,-,N/A,,Mostly Cloudy,180,2013-04-06 22:53:00
6:53 PM,73.0,55.0,53,29.81,10.0,South,18.4,-,N/A,,Mostly Cloudy,180,2013-04-06 23:53:00
7:53 PM,71.1,55.9,59,29.83,10.0,SSE,13.8,-,N/A,,Mostly Cloudy,160,2013-04-07 00:53:00
8:53 PM,69.1,55.9,63,29.83,10.0,SSE,15.0,-,N/A,,Mostly Cloudy,150,2013-04-07 01:53:00
9:53 PM,66.9,55.9,68,29.85,10.0,SSE,12.7,-,N/A,,Mostly Cloudy,150,2013-04-07 02:53:00
10:53 PM,66.0,55.9,70,29.86,10.0,SSE,13.8,-,N/A,,Partly Cloudy,160,2013-04-07 03:53:00
11:53 PM,66.0,55.9,70,29.86,10.0,South,13.8,-,N/A,,Partly Cloudy,170,2013-04-07 04:53:00